Showing default

NUSAT-37 (JOAN CLARKE), 56203

Orbit data source: Space-Track

NUSAT-37 (JOAN CLARKE), 56203 is a payload satellite owned by URUGUS S.A. (AR) in SSO that was launched on Sat, 15 Apr 2023 UTC via an FALCON 9 launch vehicle from the Air Force Western Test Range (AFWTR). Payload-class satellites include a variety of spacecraft equipped with specific instruments for various scientific and technological missions. These include communications satellites like Starlink; space stations such as the ISS; scientific satellites like the Hubble; Earth observation satellites from companies like Planet Labs, Umbra, and HawkEye 360; GPS; miniature CubeSats for education and research; and military/defense satellites.

Loading next visibility...
Identifier
56203, 2023-054AB
Orbit
SSO
Country
Flag of UnknownUnknown / ARGN
Related business
Manufacturer
URUGUS S.A.
Mission
Operational Commercial Imaging
Bus & Motor
NEWSAT V, Unknown motor
Mass
41.5 kg wet, 38.5 kg dry
Launch date (UTC)
2023-04-15 (3 years ago)
Launch vehicle
FALCON 9
Launch site
Air Force Western Test Range (AFWTR)
Object type
Payload
Rocket body
Debris
Shape & HBR
Box, 1.0 m
Radar Cross Section
0.542 m², Medium (>0.1 m² and < 1m²)

Expand to show TLE details & history
Last TLE update: 11 hours ago

TLE from 11 hours ago
0 NUSAT-37 (JOAN CLARKE)
1 56203U 23054AB  25310.27776399  .00040271  00000-0  10071-2 0  9996
2 56203  97.2832 210.8194 0010799  28.6041 331.5795 15.39952824144157
Epoch: 2025-11-06T06:39Z
TLE epoch observation values (Epoch: 2025-11-06T06:39:58.808Z)
Latitude
-0.0001°
Longitude
65.086°
Altitude
442.888 km
Speed
7.65 km/s
True Right ascension
14h 03m 16s
True Declination
0° 00' 00"
Sunlit
Object was in daylight at epoch
Visualization orbit readout
Latitude
Unknown
Longitude
Unknown
Altitude
Unknown
Speed
Unknown
Apparent Right ascension
Unknown
Apparent Declination
Unknown
Sunlit
N/A
Visualization observer readout
Local Sidereal Time
13:57:50
Azimuth
Unknown
Elevation
Unknown
Doppler factor
Unknown
Orbital elements
Apogee altitude
450.549 km
Perigee altitude
435.816 km
Semi-major axis
6,821.32 km
Eccentricity
0.00108
Inclination
97.2832°
RAAN
210.8194°
Arg. of periapsis
28.6041°
True anomaly
331.52053°
Mean anomaly
331.5795°
Eccentric anomaly
331.55002°
Mean motion
3.85248 °/min
Orbital period
93.45 mins
BSTAR
0.0010071
Loading maneuver chart data...
Computing Atmospheric mass density...
Loading historical data...
Loading historical data...
Loading historical data...
Loading historical data...
Loading historical data...
Loading historical data...
Loading historical data...

Documentation

Showing up to 5 results
|